Weather History for Deering, AK

Change the Weather History Date:

Monday, October 29, 2012

  Actual Average (PAOT) Record (PAOT)
Temperature  
Mean Temperature 27 °F 16 °F  
Max Temperature 30 °F 21 °F 40 °F (2002)
Min Temperature 24 °F 12 °F -12 °F (1975)
Degree Days  
Heating Degree Days 38 49  
Month to date heating degree days 1165  
Since 1 July heating degree days 2583  
Cooling Degree Days 0    
Month to date cooling degree days  
Year to date cooling degree days  
Moisture  
Dew Point 20 °F    
Average Humidity 77    
Maximum Humidity 93    
Minimum Humidity 55    
Precipitation  
Precipitation 0.01 in 0.02 in 0.47 in (1982)
Month to date precipitation 0.96  
Year to date precipitation 9.42  
Snow  
Snow 0.00 in 0.30 in 4.70 in (1982)
Month to date snowfall 5.6  
Since 1 July snowfall 6.4  
Since 1 September snowfall 6.4  
Snow Depth -    
Sea Level Pressure  
Sea Level Pressure 30.23 in    
Wind  
Wind Speed 21 mph (NW)    
Max Wind Speed 31 mph    
Max Gust Speed 37 mph    
Visibility 5 miles    
Events Snow    
T = Trace of Precipitation, MM = Missing Value Source: NWS Daily Summary

Daily Weather History Graph

Daily Weather History Graph

Search for Another Location

Airport:

Trip Planner

Search our weather history database for the weather conditions in past years. The results will help you decide how hot, cold, wet, or windy it might be!

Date:

Astronomy

Oct. 29, 2012 Rise Set
Actual Time 10:38 AM AKDT 6:29 PM AKDT
Civil Twilight 9:41 AM AKDT 7:26 PM AKDT
Nautical Twilight 8:40 AM AKDT 8:27 PM AKDT
Astronomical Twilight 7:40 AM AKDT 9:27 PM AKDT
Moon 6:02 PM AKDT (10/29) 11:01 AM AKDT (10/29)
Length of Visible Light 9h 45m
Length of Day
7h 50m
Full, 100% of the Moon is Illuminated
Oct 29
Full
Nov 6
Last Quarter
Nov 13
New
Nov 20
First Quarter
Nov 28
Full

Hourly Weather History & Observations

Time (AKDT) Temp. Windchill Dew Point Humidity Pressure Visibility Wind Dir Wind Speed Gust Speed Precip Events Conditions
12:09 AM 30.2 °F 19.3 °F 28.4 °F 93% 30.18 in 2.0 mi West 15.0 mph - 0.00 in Snow Light Snow
12:16 AM 30.2 °F 18.9 °F 28.4 °F 93% 30.18 in 2.0 mi West 16.1 mph - 0.00 in Snow Light Snow
12:20 AM 30.2 °F 18.9 °F 26.6 °F 86% 30.19 in 3.0 mi West 16.1 mph - 0.00 in Snow Light Snow
12:31 AM 30.2 °F 18.1 °F 28.4 °F 93% 30.19 in 4.0 mi WNW 18.4 mph 24.2 mph 0.00 in Snow Light Snow
12:34 AM 30.2 °F 18.1 °F 28.4 °F 93% 30.19 in 3.0 mi NW 18.4 mph - 0.00 in Snow Light Snow
12:41 AM 30.2 °F 17.8 °F 28.4 °F 93% 30.19 in 3.0 mi WNW 19.6 mph - 0.00 in Snow Light Snow
12:47 AM 30.2 °F 17.8 °F 28.4 °F 93% 30.19 in 4.0 mi NW 19.6 mph - 0.00 in Snow Light Snow
12:48 AM 30.2 °F 17.8 °F 28.4 °F 93% 30.20 in 4.0 mi NW 19.6 mph - 0.00 in Snow Light Snow
12:53 AM 30.0 °F 17.2 °F 27.0 °F 88% 30.20 in 3.0 mi WNW 20.7 mph - 0.00 in Snow Light Snow
1:01 AM 30.2 °F 17.8 °F 28.4 °F 93% 30.20 in 2.5 mi WNW 19.6 mph 25.3 mph 0.00 in Snow Light Snow
1:04 AM 30.2 °F 17.8 °F 26.6 °F 86% 30.20 in 3.0 mi NW 19.6 mph 25.3 mph 0.00 in Snow Light Snow
1:19 AM 28.4 °F 13.3 °F 26.6 °F 93% 30.20 in 3.0 mi NW 27.6 mph - 0.00 in Snow Light Snow
1:28 AM 28.4 °F 14.7 °F 26.6 °F 93% 30.21 in 4.0 mi NW 21.9 mph 29.9 mph 0.00 in Snow Light Snow
1:44 AM 28.4 °F 14.1 °F 24.8 °F 86% 30.21 in 7.0 mi NW 24.2 mph 33.4 mph 0.00 in Snow Light Snow
1:53 AM 28.0 °F 13.6 °F 24.1 °F 85% 30.22 in 6.0 mi NW 24.2 mph 31.1 mph 0.00 in Snow Light Snow
2:53 AM 28.9 °F 14.8 °F 21.0 °F 72% 30.23 in 10.0 mi NW 24.2 mph 35.7 mph 0.00 in   Overcast
3:53 AM 28.9 °F 14.8 °F 21.0 °F 72% 30.22 in 10.0 mi NW 24.2 mph - N/A   Overcast
4:14 AM 28.4 °F 14.4 °F 17.6 °F 64% 30.21 in 10.0 mi WNW 23.0 mph - N/A   Overcast
4:53 AM 28.0 °F 14.9 °F 21.0 °F 75% 30.22 in 8.0 mi WNW 19.6 mph 27.6 mph 0.00 in Snow Light Snow
5:53 AM 28.0 °F 13.9 °F 19.9 °F 72% 30.21 in 8.0 mi WNW 23.0 mph 31.1 mph 0.00 in   Overcast
6:18 AM 26.6 °F 13.1 °F 21.2 °F 80% 30.21 in 2.5 mi WNW 19.6 mph 28.8 mph 0.00 in Snow Light Snow
6:29 AM 26.6 °F 13.1 °F 19.4 °F 74% 30.21 in 8.0 mi NW 19.6 mph - 0.00 in   Overcast
6:41 AM 26.6 °F 12.4 °F 19.4 °F 74% 30.21 in 1.8 mi WNW 21.9 mph 29.9 mph 0.00 in Snow Light Snow
6:53 AM 26.1 °F 12.0 °F 23.0 °F 88% 30.21 in 1.8 mi WNW 20.7 mph - 0.00 in Snow Light Snow
7:11 AM 26.6 °F 12.7 °F 23.0 °F 86% 30.21 in 1.5 mi WNW 20.7 mph - 0.00 in Snow Light Snow
7:23 AM 26.6 °F 13.8 °F 23.0 °F 86% 30.21 in 2.5 mi WNW 17.3 mph - 0.00 in Snow Light Snow
7:36 AM 26.6 °F 13.1 °F 21.2 °F 80% 30.21 in 1.2 mi NW 19.6 mph 26.5 mph 0.00 in Snow Light Snow
7:46 AM 26.6 °F 13.8 °F 23.0 °F 86% 30.21 in 2.0 mi NW 17.3 mph - 0.00 in Snow Light Snow
7:53 AM 27.0 °F 14.7 °F 21.9 °F 81% 30.21 in 5.0 mi WNW 16.1 mph - 0.00 in Snow Light Snow
8:00 AM 26.6 °F 10.6 °F 21.2 °F 80% 30.21 in 1.8 mi NW 28.8 mph 36.8 mph 0.01 in Snow Light Snow
8:07 AM 26.6 °F 12.4 °F 21.2 °F 80% 30.21 in 1.5 mi NW 21.9 mph 36.8 mph 0.01 in Snow Light Snow
8:11 AM 26.6 °F 12.4 °F 21.2 °F 80% 30.21 in 3.0 mi NW 21.9 mph - 0.01 in Snow Light Snow
8:36 AM 26.6 °F 10.3 °F 19.4 °F 74% 30.21 in 4.0 mi NW 29.9 mph - 0.01 in Snow Light Snow
8:53 AM 26.1 °F 9.6 °F 19.0 °F 75% 30.21 in 3.0 mi NW 29.9 mph 35.7 mph 0.01 in   Mostly Cloudy
9:53 AM 26.1 °F 11.0 °F 14.0 °F 60% 30.22 in 10.0 mi NNW 24.2 mph 28.8 mph 0.00 in   Overcast
10:35 AM 24.8 °F 9.0 °F 17.6 °F 74% 30.23 in 2.5 mi NW 25.3 mph 31.1 mph 0.00 in Snow Light Snow
10:48 AM 26.6 °F 10.0 °F 17.6 °F 69% 30.22 in 4.0 mi NW 31.1 mph 35.7 mph 0.00 in Snow Light Snow
10:53 AM 25.0 °F 8.9 °F 17.1 °F 72% 30.23 in 2.0 mi NW 26.5 mph 35.7 mph 0.00 in Snow Light Snow
11:05 AM 26.6 °F 11.4 °F 15.8 °F 64% 30.23 in 7.0 mi NNW 25.3 mph 33.4 mph 0.00 in Snow Light Snow
11:53 AM 25.0 °F 9.2 °F 14.0 °F 63% 30.24 in 10.0 mi NW 25.3 mph - 0.00 in   Overcast
12:53 PM 25.0 °F 10.6 °F 14.0 °F 63% 30.25 in 10.0 mi NW 20.7 mph - N/A   Overcast
1:16 PM 24.8 °F 11.1 °F 17.6 °F 74% 30.26 in 1.8 mi WNW 18.4 mph - 0.00 in Snow Light Snow
1:23 PM 24.8 °F 11.1 °F 19.4 °F 80% 30.25 in 1.5 mi WNW 18.4 mph - 0.00 in Snow Light Snow
1:27 PM 24.8 °F 10.3 °F 19.4 °F 80% 30.26 in 4.0 mi NW 20.7 mph 26.5 mph 0.00 in Snow Light Snow
1:53 PM 25.0 °F 11.7 °F 14.0 °F 63% 30.26 in 10.0 mi NW 17.3 mph 26.5 mph 0.00 in   Overcast
2:53 PM 24.1 °F 9.0 °F 10.9 °F 57% 30.27 in 10.0 mi NW 21.9 mph 29.9 mph N/A   Partly Cloudy
3:53 PM 24.1 °F 8.0 °F 12.0 °F 60% 30.28 in 10.0 mi NNW 25.3 mph 33.4 mph N/A   Scattered Clouds
4:53 PM 24.1 °F 8.0 °F 12.0 °F 60% 30.29 in 8.0 mi NW 25.3 mph 34.5 mph 0.00 in Snow Light Snow
5:53 PM 24.1 °F 7.7 °F 12.9 °F 62% 30.29 in 10.0 mi NW 26.5 mph 32.2 mph 0.00 in   Overcast
6:53 PM 24.1 °F 7.7 °F 10.0 °F 55% 30.30 in 10.0 mi NW 26.5 mph 34.5 mph 0.00 in   Partly Cloudy
7:53 PM 25.0 °F 9.5 °F 15.1 °F 66% 30.31 in 10.0 mi NW 24.2 mph 33.4 mph N/A   Mostly Cloudy
8:53 PM 26.1 °F 10.1 °F 16.0 °F 66% 30.31 in 10.0 mi NW 27.6 mph 33.4 mph 0.00 in   Overcast
9:41 PM 24.8 °F 11.1 °F 19.4 °F 80% 30.33 in 4.0 mi NW 18.4 mph - 0.00 in Snow Light Snow
9:48 PM 26.6 °F 11.7 °F 15.8 °F 64% 30.32 in 8.0 mi NNW 24.2 mph 31.1 mph 0.00 in Snow Light Snow
9:53 PM 26.1 °F 10.7 °F 16.0 °F 66% 30.33 in 9.0 mi NNW 25.3 mph 31.1 mph 0.00 in   Mostly Cloudy
11:53 PM 27.0 °F 12.5 °F 17.1 °F 66% 30.35 in 9.0 mi NW 23.0 mph 33.4 mph 0.00 in   Overcast